Location: Drocourt
(49.0571°N, 1.7669°E)
Time: 02:15:34
(UTC+00:00)

Transit 4A - Pass Details

Date: 21 April 2024
Orbit: 871 x 971 km, 66.8° (Epoch: 19 May)

Event Time Altitude Azimuth Distance (km) Brightness Sun altitude
Rises 11:41:30 0° 185° (S) 3,535 11.5 53.0°
Reaches altitude 10° 11:44:12 10° 178° (S) 2,581 11.1 53.0°
Maximum altitude 11:49:35 36° 113° (ESE) 1,375 9.6 53.1°
Drops below altitude 10° 11:54:53 10° 49° (NE) 2,546 10.1 53.1°
Sets 11:57:32 0° 41° (NE) 3,480 10.6 53.0°
